[Iaude] MPEC G176: 2024 GO4 [a=1.95,e=0.36,i=11.4,H=22.1]

mpec at cfa.harvard.edu mpec at cfa.harvard.edu
Fri Apr 12 13:27:38 EDT 2024


M.P.E.C. 2024-G176                               Issued 2024 April 12, 17:26 UT

     The Minor Planet Electronic Circulars contain information on unusual
         minor planets, routine data on comets and natural satellites,
         and occasional editorial announcements.  They are published
    on behalf of Division F of the International Astronomical Union by the
          Minor Planet Center, Smithsonian Astrophysical Observatory,
                          Cambridge, MA 02138, U.S.A.
			  
             Prepared using the Tamkin Foundation Computer Network

                              MPC at CFA.HARVARD.EDU
            URL https://www.minorplanetcenter.net/    ISSN 1523-6714

                                    2024 GO4                                    


Observations:
     K24G04O  C2024 03 13.59681714 56 50.452+08 56 34.35         20.36GVEG176F52
     K24G04O  C2024 03 13.60864914 56 52.314+08 56 52.69         21.83GVEG176F52
     K24G04O  C2024 03 13.62038614 56 54.134+08 57 10.74         21.75GVEG176F52
     K24G04O  C2024 03 13.63215314 56 55.967+08 57 28.83         21.71GVEG176F52
     K24G04O  C2024 04 01.60219615 40 17.581+16 49 24.95         21.35GVEG176F51
     K24G04O  C2024 04 01.62057615 40 19.309+16 49 49.25         21.77GVEG176F51
     K24G04O  C2024 04 01.62964015 40 20.173+16 50 01.07         21.91GVEG176F51
     K24G04O* C2024 04 10.42759815 53 07.308+19 44 10.82         22.27wXEG176F51
     K24G04O  C2024 04 10.44051315 53 08.090+19 44 24.66         21.50wXEG176F51
     K24G04O  C2024 04 10.45336315 53 08.877+19 44 38.10         21.77wXEG176F51
     K24G04O  C2024 04 10.46623415 53 09.650+19 44 51.60         22.16wXEG176F51
     K24G04O KC2024 04 11.29017115 54 05.840+19 58 37.10               VEG176V06
     K24G04O KC2024 04 11.29186015 54 05.930+19 58 39.00               VEG176V06
     K24G04O KC2024 04 11.29354915 54 06.020+19 58 40.70         21.90GVEG176V06
     K24G04O KC2024 04 12.32135415 55 11.838+20 15 20.20         21.86GVEG176V06
     K24G04O KC2024 04 12.32431215 55 11.996+20 15 23.08         21.62GVEG176V06
     K24G04O KC2024 04 12.32579315 55 12.083+20 15 24.26         21.42GVEG176V06

Observer details:
F51 Pan-STARRS 1, Haleakala.  Observers J. Herman, T. Lowe, P. Minguez, A.
    Schultz, I. Smith.  Measurers K. Chambers, T. de Boer, J. Fairlamb, H.
    Gao, M. Huber, C.-C. Lin, E. Magnier, Y. Ramanjooloo, R. Wainscoat, R.
    Weryk.  1.8-m Ritchey-Chretien + CCD.
F52 Pan-STARRS 2, Haleakala.  Observers J. Herman, T. Lowe, P. Minguez, A.
    Schultz, I. Smith.  Measurers K. Chambers, T. de Boer, J. Fairlamb, H.
    Gao, M. Huber, C.-C. Lin, E. Magnier, Y. Ramanjooloo, R. Wainscoat, R.
    Weryk.  1.8-m Ritchey-Chretien + CCD.
V06 Catalina Sky Survey-Kuiper.  Observers V. F. Carvajal, G. J. Leonard, D.
    Rankin.  Measurers T. Beuden, V. F. Carvajal, D. Fay, J. B. Fazekas, D. C.
    Fuls, A. R. Gibbs, A. D. Grauer, H. Groeller, J. K. Hogan, R. A. Kowalski,
    S. M. Larson, G. J. Leonard, D. Rankin, R. L. Seaman, F. C. Shelly, K. W.
    Wierzchos.  1.55-m reflector + 1K CCD.

Orbital elements:
2024 GO4                                                 Earth MOID = 0.2857 AU
Epoch 2024 Mar. 31.0 TT = JDT 2460400.5                 MPC                     
M   2.69353              (2000.0)            P               Q                  
n   0.36138938     Peri.   45.05547     -0.96820601     +0.22659799             
a   1.9520269      Node   147.60193     -0.24589312     -0.93995218             
e   0.3608495      Incl.   11.40757     +0.04597484     -0.25523174             
P   2.73           H   22.19          G   0.15           U   6                  
Residuals in seconds of arc
240313 F52  0.2-  0.0     240401 F51  0.0   0.0     240411 V06  0.1-  0.0
240313 F52  0.1+  0.1+    240410 F51  0.0   0.0     240411 V06  0.3-  0.1-
240313 F52  0.0   0.0     240410 F51  0.1-  0.1+    240412 V06  0.1+  0.1+
240313 F52  0.0   0.1-    240410 F51  0.0   0.0     240412 V06  0.0   0.1+
240401 F51  0.0   0.1-    240410 F51  0.1-  0.1-    240412 V06  0.1+  0.1-
240401 F51  0.0   0.1+    240411 V06  0.0   0.2-

Ephemeris:
2024 GO4                 a,e,i = 1.95, 0.36, 11                  q = 1.2476
Date    TT    R. A. (2000) Decl.     Delta      r    Elong.  Phase     V
2024 03 13    14 55 11.4 +08 41 15   0.3574  1.2514   129.4    37.9    22.0
...
2024 03 28    15 31 37.4 +15 03 01   0.3407  1.2483   131.0    37.1    21.8
...
2024 04 05    15 45 50.2 +18 01 54   0.3399  1.2529   131.8    36.5    21.8
...
2024 04 11    15 53 45.3 +19 53 54   0.3424  1.2592   132.5    35.9    21.8
2024 04 12    15 54 50.7 +20 10 19   0.3431  1.2605   132.7    35.8    21.8
2024 04 13    15 55 52.3 +20 26 01   0.3438  1.2618   132.8    35.7    21.8
...
2024 04 19    16 00 43.8 +21 44 42   0.3493  1.2712   133.7    34.8    21.9
...
2024 04 27    16 04 01.8 +22 45 23   0.3600  1.2871   135.2    33.4    21.9
...
2024 05 12    16 02 53.1 +22 14 15   0.3905  1.3265   138.0    30.6    22.1

A. U. Tomatic                (C) Copyright 2024 MPC           M.P.E.C. 2024-G176





More information about the Iaude mailing list